This is the latest recevied weather packets stored in our database for station/object KD0MAC. If no packets are shown the sender has not sent any weather packets the latest 10 day(s).
| Time | Temp. | Humidity | Pressure | Rain* | Wind** | Luminosity | Snow |
|---|---|---|---|---|---|---|---|
| 1788136030 | 90° F | 47% | 758.5 mmHg | 0 in | - | 29 W/m² | - |
| 1788135730 | 91° F | 45% | 758.5 mmHg | 0 in | - | 32 W/m² | - |
| 1788135430 | 92° F | 45% | 758.5 mmHg | 0 in | - | 40 W/m² | - |
| 1788135129 | 93° F | 43% | 758.7 mmHg | 0 in | - | 47 W/m² | - |
| 1788134829 | 93° F | 41% | 758.7 mmHg | 0 in | - | 50 W/m² | - |
| 1788134533 | 93° F | 40% | 758.7 mmHg | 0 in | - | 53 W/m² | - |
| 1788134229 | 92° F | 43% | 758.7 mmHg | 0 in | - | 83 W/m² | - |
| 1788133929 | 93° F | 40% | 758.7 mmHg | 0 in | - | 119 W/m² | - |
| 1788133629 | 93° F | 41% | 758.7 mmHg | 0 in | - | 113 W/m² | - |
| 1788133330 | 93° F | 41% | 758.7 mmHg | 0 in | - | 97 W/m² | - |
| 1788133030 | 93° F | 42% | 758.7 mmHg | 0 in | - | 116 W/m² | - |
| 1788132729 | 92° F | 43% | 758.7 mmHg | 0 in | - | 115 W/m² | - |
| 1788132430 | 93° F | 44% | 758.5 mmHg | 0 in | - | 105 W/m² | - |
| 1788132129 | 94° F | 41% | 758.5 mmHg | 0 in | - | 147 W/m² | - |
| 1788131829 | 94° F | 42% | 758.5 mmHg | 0 in | - | 183 W/m² | - |
| 1788131529 | 94° F | 41% | 758.5 mmHg | 0 in | - | 182 W/m² | - |
| 1788131230 | 94° F | 42% | 758.5 mmHg | 0 in | - | 192 W/m² | - |
| 1788130929 | 95° F | 42% | 758.5 mmHg | 0 in | - | 217 W/m² | - |
| 1788130629 | 94° F | 42% | 758.5 mmHg | 0 in | - | 213 W/m² | - |
| 1788130047 | 95° F | 42% | 758.5 mmHg | 0 in | - | 262 W/m² | - |
| 1788129729 | 95° F | 42% | 758.5 mmHg | 0 in | - | 276 W/m² | - |
| 1788129429 | 95° F | 40% | 758.5 mmHg | 0 in | - | 287 W/m² | - |
| 1788129129 | 95° F | 40% | 758.5 mmHg | 0 in | - | 300 W/m² | - |
| 1788128829 | 94° F | 42% | 758.5 mmHg | 0 in | - | 285 W/m² | - |
| 1788128530 | 94° F | 41% | 758.5 mmHg | 0 in | - | 303 W/m² | - |
* Rain latest hour (hover to see other rain measurements)
** Current wind speed in m/s (hover to see current wind gust speed)